When you browse on this site, cookies collect data to enhance your experience and personalize the content and advertising you see.
Visit our Privacy Policy to learn more. By continuing to use the site, you agree to this use of cookies and data.
  • In Portugal
  • List of Countries
  • For 7 days
  • Water Temperature
  • Satellite Maps
  • Weather Map
  • Weather Widgets
  • user-avatar
    Login

    Hourly Weather Sur

    Today, 13 December, Thursday

    Time Temperature Precipitation Wind Pressure Humidity
    00:00 +15°C° 0 mm 6 mps 764 mmHg 82%
    01:00 +15°C° 0 mm 6 mps 765 mmHg 81%
    02:00 +14°C° 0 mm 6 mps 765 mmHg 80%
    03:00 +14°C° 0 mm 6 mps 765 mmHg 80%
    04:00 +14°C° 0 mm 6 mps 765 mmHg 80%
    05:00 +14°C° 0 mm 5 mps 766 mmHg 80%
    06:00 +14°C° 0.1 mm 5 mps 766 mmHg 79%
    07:00 +14°C° 0.1 mm 5 mps 766 mmHg 78%
    08:00 +14°C° 0.1 mm 5 mps 767 mmHg 76%
    09:00 +15°C° 0.1 mm 5 mps 767 mmHg 74%
    10:00 +15°C° 0.1 mm 5 mps 767 mmHg 72%
    11:00 +17°C° 0.1 mm 4 mps 767 mmHg 70%
    12:00 +17°C° 0.1 mm 4 mps 767 mmHg 70%
    13:00 +17°C° 0.1 mm 4 mps 767 mmHg 70%
    14:00 +17°C° 0.1 mm 4 mps 767 mmHg 70%
    15:00 +16°C° 0 mm 3 mps 767 mmHg 73%
    16:00 +14°C° 0 mm 3 mps 767 mmHg 76%
    17:00 +15°C° 0 mm 2 mps 767 mmHg 80%
    18:00 +14°C° 0 mm 2 mps 768 mmHg 80%
    19:00 +14°C° 0 mm 1 mps 768 mmHg 81%
    20:00 +14°C° 0 mm 1 mps 768 mmHg 82%
    21:00 +13°C° 0 mm 1 mps 768 mmHg 82%
    22:00 +13°C° 0 mm 1 mps 768 mmHg 82%
    23:00 +13°C° 0 mm 1 mps 768 mmHg 82%

    Tomorrow, 14 December, Friday

    Time Temperature Precipitation Wind Pressure Humidity
    00:00 +13°C° 0 mm 1 mps 768 mmHg 82%
    01:00 +13°C° 0 mm 1 mps 768 mmHg 81%
    02:00 +12°C° 0 mm 1 mps 768 mmHg 81%
    03:00 +12°C° 0 mm 1 mps 768 mmHg 80%
    04:00 +12°C° 0 mm 2 mps 768 mmHg 79%
    05:00 +12°C° 0 mm 2 mps 768 mmHg 78%
    06:00 +13°C° 0 mm 2 mps 768 mmHg 74%
    07:00 +14°C° 0 mm 2 mps 768 mmHg 71%
    08:00 +15°C° 0 mm 2 mps 768 mmHg 68%
    09:00 +16°C° 0 mm 2 mps 768 mmHg 60%
    10:00 +17°C° 0 mm 2 mps 768 mmHg 53%
    11:00 +19°C° 0 mm 2 mps 768 mmHg 46%
    12:00 +20°C° 0 mm 1 mps 768 mmHg 44%
    13:00 +21°C° 0 mm 1 mps 767 mmHg 42%
    14:00 +21°C° 0 mm 1 mps 767 mmHg 41%
    15:00 +20°C° 0 mm 1 mps 767 mmHg 47%
    16:00 +19°C° 0 mm 1 mps 767 mmHg 53%
    17:00 +17°C° 0 mm 2 mps 767 mmHg 59%
    18:00 +16°C° 0 mm 2 mps 767 mmHg 59%
    19:00 +16°C° 0 mm 2 mps 767 mmHg 59%
    20:00 +16°C° 0 mm 2 mps 767 mmHg 59%
    21:00 +16°C° 0 mm 2 mps 767 mmHg 58%
    22:00 +15°C° 0 mm 2 mps 767 mmHg 58%
    23:00 +14°C° 0 mm 3 mps 767 mmHg 57%

    Day after tomorrow, 15 December, Saturday

    Time Temperature Precipitation Wind Pressure Humidity
    00:00 +14°C° 0 mm 3 mps 767 mmHg 56%
    01:00 +14°C° 0 mm 3 mps 767 mmHg 56%
    02:00 +14°C° 0 mm 3 mps 767 mmHg 55%
    03:00 +14°C° 0 mm 4 mps 767 mmHg 55%
    04:00 +13°C° 0 mm 4 mps 766 mmHg 55%
    05:00 +13°C° 0 mm 4 mps 766 mmHg 55%
    06:00 +14°C° 0 mm 4 mps 766 mmHg 55%
    07:00 +15°C° 0 mm 4 mps 766 mmHg 56%
    08:00 +15°C° 0 mm 5 mps 766 mmHg 56%
    09:00 +17°C° 0 mm 5 mps 766 mmHg 52%
    10:00 +20°C° 0 mm 5 mps 766 mmHg 48%
    11:00 +21°C° 0 mm 5 mps 766 mmHg 44%
    12:00 +22°C° 0 mm 5 mps 765 mmHg 43%
    13:00 +22°C° 0 mm 5 mps 764 mmHg 42%
    14:00 +23°C° 0 mm 5 mps 764 mmHg 42%
    15:00 +21°C° 0 mm 5 mps 763 mmHg 46%
    16:00 +20°C° 0 mm 5 mps 763 mmHg 50%
    17:00 +19°C° 0 mm 5 mps 763 mmHg 54%
    18:00 +19°C° 0 mm 5 mps 763 mmHg 55%
    19:00 +17°C° 0 mm 5 mps 763 mmHg 55%
    20:00 +17°C° 0 mm 6 mps 763 mmHg 56%
    21:00 +17°C° 0 mm 6 mps 763 mmHg 57%
    22:00 +17°C° 0 mm 7 mps 763 mmHg 58%
    23:00 +17°C° 0 mm 7 mps 762 mmHg 58%

    16 December, Sunday

    Time Temperature Precipitation Wind Pressure Humidity
    00:00 +17°C° 0 mm 8 mps 762 mmHg 60%
    01:00 +16°C° 0 mm 8 mps 762 mmHg 61%
    02:00 +16°C° 0 mm 8 mps 761 mmHg 62%
    03:00 +16°C° 0 mm 8 mps 761 mmHg 64%
    04:00 +16°C° 0 mm 8 mps 761 mmHg 65%
    05:00 +15°C° 0 mm 7 mps 761 mmHg 66%
    06:00 +16°C° 0 mm 7 mps 761 mmHg 65%
    07:00 +16°C° 0 mm 7 mps 761 mmHg 64%
    08:00 +17°C° 0 mm 7 mps 761 mmHg 63%
    09:00 +18°C° 0 mm 7 mps 761 mmHg 59%
    10:00 +20°C° 0 mm 6 mps 761 mmHg 55%
    11:00 +22°C° 0 mm 6 mps 761 mmHg 51%
    12:00 +22°C° 0 mm 6 mps 760 mmHg 51%
    13:00 +22°C° 0 mm 5 mps 760 mmHg 50%
    14:00 +23°C° 0 mm 5 mps 759 mmHg 50%
    15:00 +21°C° 0 mm 4 mps 759 mmHg 55%
    16:00 +20°C° 0 mm 4 mps 759 mmHg 60%
    17:00 +19°C° 0 mm 4 mps 759 mmHg 66%
    18:00 +18°C° 0.1 mm 4 mps 760 mmHg 68%
    19:00 +18°C° 0.1 mm 4 mps 760 mmHg 70%
    20:00 +17°C° 0.1 mm 4 mps 760 mmHg 72%
    21:00 +17°C° 0 mm 4 mps 760 mmHg 73%
    22:00 +15°C° 0 mm 4 mps 760 mmHg 74%
    23:00 +15°C° 0 mm 4 mps 760 mmHg 75%

    17 December, Monday

    Time Temperature Precipitation Wind Pressure Humidity
    00:00 +16°C° 0 mm 3 mps 760 mmHg 76%
    01:00 +14°C° 0 mm 3 mps 760 mmHg 77%
    02:00 +14°C° 0 mm 3 mps 760 mmHg 78%
    03:00 +14°C° 0 mm 3 mps 760 mmHg 77%
    04:00 +13°C° 0 mm 3 mps 760 mmHg 76%
    05:00 +13°C° 0 mm 3 mps 760 mmHg 74%
    06:00 +14°C° 0.6 mm 3 mps 760 mmHg 71%
    07:00 +16°C° 0.6 mm 3 mps 760 mmHg 68%
    08:00 +16°C° 0.6 mm 3 mps 761 mmHg 65%
    09:00 +17°C° 0.4 mm 4 mps 761 mmHg 64%
    10:00 +17°C° 0.4 mm 4 mps 761 mmHg 63%
    11:00 +16°C° 0.4 mm 5 mps 761 mmHg 62%
    12:00 +16°C° 0.2 mm 6 mps 761 mmHg 63%
    13:00 +17°C° 0.2 mm 6 mps 761 mmHg 63%
    14:00 +17°C° 0.2 mm 6 mps 760 mmHg 64%
    15:00 +16°C° 0.6 mm 6 mps 761 mmHg 70%
    16:00 +15°C° 0.6 mm 5 mps 761 mmHg 75%
    17:00 +14°C° 0.6 mm 4 mps 761 mmHg 80%
    18:00 +14°C° 0.2 mm 4 mps 762 mmHg 82%
    19:00 +14°C° 0.2 mm 3 mps 762 mmHg 83%
    20:00 +14°C° 0.2 mm 3 mps 763 mmHg 84%
    21:00 +14°C° 0.1 mm 3 mps 763 mmHg 86%
    22:00 +14°C° 0.1 mm 3 mps 763 mmHg 87%
    23:00 +13°C° 0.1 mm 3 mps 763 mmHg 88%

    18 December, Tuesday

    Time Temperature Precipitation Wind Pressure Humidity
    00:00 +13°C° 0.2 mm 3 mps 763 mmHg 89%
    01:00 +13°C° 0.2 mm 3 mps 763 mmHg 90%
    02:00 +13°C° 0.2 mm 3 mps 763 mmHg 91%
    03:00 +13°C° 0.3 mm 3 mps 764 mmHg 91%
    04:00 +13°C° 0.3 mm 3 mps 764 mmHg 91%
    05:00 +13°C° 0.3 mm 3 mps 764 mmHg 91%
    06:00 +13°C° 0.3 mm 3 mps 764 mmHg 89%
    07:00 +14°C° 0.3 mm 3 mps 765 mmHg 87%
    08:00 +14°C° 0.3 mm 3 mps 765 mmHg 86%
    09:00 +16°C° 0.3 mm 3 mps 765 mmHg 81%
    10:00 +17°C° 0.3 mm 4 mps 765 mmHg 77%
    11:00 +18°C° 0.3 mm 4 mps 765 mmHg 73%
    12:00 +19°C° 0.3 mm 4 mps 765 mmHg 72%
    13:00 +19°C° 0.3 mm 4 mps 764 mmHg 71%
    14:00 +19°C° 0.3 mm 4 mps 764 mmHg 70%
    15:00 +18°C° 0.2 mm 4 mps 764 mmHg 75%
    16:00 +17°C° 0.2 mm 4 mps 764 mmHg 80%
    17:00 +17°C° 0.2 mm 4 mps 765 mmHg 86%
    18:00 +17°C° 0.4 mm 4 mps 765 mmHg 87%
    19:00 +15°C° 0.4 mm 4 mps 765 mmHg 87%
    20:00 +15°C° 0.4 mm 4 mps 765 mmHg 88%
    21:00 +15°C° 0.3 mm 4 mps 765 mmHg 89%
    22:00 +15°C° 0.3 mm 4 mps 765 mmHg 90%
    23:00 +15°C° 0.3 mm 4 mps 765 mmHg 91%
    Show more